Time,TemperatureF,DewpointF,PressureIn,WindDirection,WindDirectionDegrees,WindSpeedMPH,WindSpeedGustMPH,Humidity,HourlyPrecipIn,Conditions,Clouds,dailyrainin,SoftwareType,DateUTC
2013-10-10 00:03:00,49.0,44.0,-100.00,South,175,1.0,3.0,83,0.00,,,-99.99,,2013-10-10 05:03:00,
2013-10-10 00:12:00,49.0,44.0,-100.00,South,175,1.0,3.0,83,0.00,,,-99.99,,2013-10-10 05:12:00,
2013-10-10 00:53:00,48.0,45.0,-100.00,South,190,1.0,3.0,90,0.00,,,-99.99,,2013-10-10 05:53:00,
2013-10-10 01:03:00,48.0,45.0,-100.00,South,190,1.0,3.0,90,0.00,,,-99.99,,2013-10-10 06:03:00,
2013-10-10 01:13:00,48.0,45.0,-100.00,South,190,1.0,3.0,90,0.00,,,-99.99,,2013-10-10 06:13:00,
2013-10-10 01:53:00,45.0,43.0,-100.00,ENE,70,0.0,1.0,91,0.00,,,-99.99,,2013-10-10 06:53:00,
2013-10-10 02:02:00,45.0,43.0,-100.00,ENE,70,0.0,1.0,91,0.00,,,-99.99,,2013-10-10 07:02:00,
2013-10-10 02:11:00,45.0,43.0,-100.00,ENE,70,0.0,1.0,91,0.00,,,-99.99,,2013-10-10 07:11:00,
2013-10-10 02:52:00,44.0,41.0,-100.00,NE,45,1.0,2.0,92,0.00,,,-99.99,,2013-10-10 07:52:00,
2013-10-10 03:02:00,44.0,41.0,-100.00,NE,45,1.0,2.0,92,0.00,,,-99.99,,2013-10-10 08:02:00,
2013-10-10 03:11:00,44.0,41.0,-100.00,NE,45,1.0,2.0,92,0.00,,,-99.99,,2013-10-10 08:11:00,
2013-10-10 03:52:00,43.0,40.0,-100.00,NE,45,1.0,2.0,92,0.00,,,-99.99,,2013-10-10 08:52:00,
2013-10-10 04:02:00,43.0,40.0,-100.00,NE,45,1.0,2.0,92,0.00,,,-99.99,,2013-10-10 09:02:00,
2013-10-10 04:12:00,43.0,40.0,-100.00,NE,45,1.0,2.0,92,0.00,,,-99.99,,2013-10-10 09:12:00,
2013-10-10 04:53:00,42.0,40.0,-100.00,NE,40,1.0,2.0,92,0.00,,,-99.99,,2013-10-10 09:53:00,
2013-10-10 05:03:00,42.0,40.0,-100.00,NE,40,1.0,2.0,92,0.00,,,-99.99,,2013-10-10 10:03:00,
2013-10-10 05:12:00,42.0,40.0,-100.00,NE,40,1.0,2.0,92,0.00,,,-99.99,,2013-10-10 10:12:00,
2013-10-10 05:53:00,42.0,40.0,-100.00,North,10,1.0,2.0,92,0.00,,,-99.99,,2013-10-10 10:53:00,
2013-10-10 06:03:00,42.0,40.0,-100.00,North,10,1.0,2.0,92,0.00,,,-99.99,,2013-10-10 11:03:00,
2013-10-10 06:12:00,42.0,40.0,-100.00,North,10,1.0,2.0,92,0.00,,,-99.99,,2013-10-10 11:12:00,
2013-10-10 06:56:00,40.0,38.0,-100.00,NE,50,3.0,4.0,92,0.00,,,-99.99,,2013-10-10 11:56:00,
2013-10-10 07:12:00,40.0,38.0,-100.00,NE,50,3.0,4.0,92,0.00,,,-99.99,,2013-10-10 12:12:00,
2013-10-10 07:52:00,40.0,38.0,-100.00,NE,40,2.0,2.0,92,0.00,,,-99.99,,2013-10-10 12:52:00,
2013-10-10 08:02:00,40.0,38.0,-100.00,NE,40,2.0,2.0,92,0.00,,,-99.99,,2013-10-10 13:02:00,
2013-10-10 08:12:00,40.0,38.0,-100.00,NE,40,2.0,2.0,92,0.00,,,-99.99,,2013-10-10 13:12:00,
2013-10-10 08:52:00,44.0,42.0,-100.00,NE,35,1.0,2.0,92,0.00,,,-99.99,,2013-10-10 13:52:00,
2013-10-10 09:02:00,44.0,42.0,-100.00,NE,35,1.0,2.0,92,0.00,,,-99.99,,2013-10-10 14:02:00,
2013-10-10 09:11:00,44.0,42.0,-100.00,NE,35,1.0,2.0,92,0.00,,,-99.99,,2013-10-10 14:11:00,
2013-10-10 09:52:00,50.0,48.0,-100.00,ENE,60,2.0,4.0,92,0.00,,,-99.99,,2013-10-10 14:52:00,
2013-10-10 10:02:00,50.0,48.0,-100.00,ENE,60,2.0,4.0,92,0.00,,,-99.99,,2013-10-10 15:02:00,
2013-10-10 10:11:00,50.0,48.0,-100.00,ENE,60,2.0,4.0,92,0.00,,,-99.99,,2013-10-10 15:11:00,
2013-10-10 10:54:00,60.0,51.0,-100.00,NE,50,1.0,4.0,72,0.00,,,-99.99,,2013-10-10 15:54:00,
2013-10-10 11:03:00,60.0,51.0,-100.00,NE,50,1.0,4.0,72,0.00,,,-99.99,,2013-10-10 16:03:00,
2013-10-10 11:13:00,60.0,51.0,-100.00,NE,50,1.0,4.0,72,0.00,,,-99.99,,2013-10-10 16:13:00,
2013-10-10 11:53:00,64.0,45.0,-100.00,South,190,4.0,7.0,50,0.00,,,-99.99,,2013-10-10 16:53:00,
2013-10-10 12:02:00,64.0,45.0,-100.00,South,190,4.0,7.0,50,0.00,,,-99.99,,2013-10-10 17:02:00,
2013-10-10 12:12:00,64.0,45.0,-100.00,South,190,4.0,7.0,50,0.00,,,-99.99,,2013-10-10 17:12:00,
2013-10-10 12:53:00,68.0,43.0,-100.00,SSE,150,7.0,9.0,41,0.00,,,-99.99,,2013-10-10 17:53:00,
2013-10-10 13:02:00,68.0,43.0,-100.00,SSE,150,7.0,9.0,41,0.00,,,-99.99,,2013-10-10 18:02:00,
2013-10-10 13:12:00,68.0,43.0,-100.00,SSE,150,7.0,9.0,41,0.00,,,-99.99,,2013-10-10 18:12:00,
2013-10-10 13:52:00,71.0,41.0,-100.00,South,170,9.0,14.0,34,0.00,,,-99.99,,2013-10-10 18:52:00,
2013-10-10 14:01:00,71.0,41.0,-100.00,South,170,9.0,14.0,34,0.00,,,-99.99,,2013-10-10 19:01:00,
2013-10-10 14:11:00,71.0,41.0,-100.00,South,170,9.0,14.0,34,0.00,,,-99.99,,2013-10-10 19:11:00,
2013-10-10 18:12:00,72.0,38.0,-100.00,SSE,155,4.0,9.0,29,0.00,,,-99.99,,2013-10-10 23:12:00,
2013-10-10 18:53:00,68.0,40.0,-100.00,South,175,4.0,6.0,36,0.00,,,-99.99,,2013-10-10 23:53:00,
2013-10-10 19:02:00,68.0,40.0,-100.00,South,175,4.0,6.0,36,0.00,,,-99.99,,2013-10-11 00:02:00,
2013-10-10 19:11:00,68.0,40.0,-100.00,South,175,4.0,6.0,36,0.00,,,-99.99,,2013-10-11 00:11:00,
2013-10-10 19:52:00,58.0,47.0,-100.00,NE,35,1.0,2.0,66,0.00,,,-99.99,,2013-10-11 00:52:00,
2013-10-10 20:01:00,58.0,47.0,-100.00,NE,35,1.0,2.0,66,0.00,,,-99.99,,2013-10-11 01:01:00,
2013-10-10 20:11:00,58.0,47.0,-100.00,NE,35,1.0,2.0,66,0.00,,,-99.99,,2013-10-11 01:11:00,
2013-10-10 20:52:00,54.0,49.0,-100.00,NE,40,2.0,3.0,83,0.00,,,-99.99,,2013-10-11 01:52:00,
2013-10-10 21:02:00,54.0,49.0,-100.00,NE,40,2.0,3.0,83,0.00,,,-99.99,,2013-10-11 02:02:00,
2013-10-10 21:12:00,54.0,49.0,-100.00,NE,40,2.0,3.0,83,0.00,,,-99.99,,2013-10-11 02:12:00,
2013-10-10 21:52:00,54.0,50.0,-100.00,East,85,2.0,5.0,85,0.00,,,-99.99,,2013-10-11 02:52:00,
2013-10-10 22:02:00,54.0,50.0,-100.00,East,85,2.0,5.0,85,0.00,,,-99.99,,2013-10-11 03:02:00,
2013-10-10 22:11:00,54.0,50.0,-100.00,East,85,2.0,5.0,85,0.00,,,-99.99,,2013-10-11 03:11:00,
2013-10-10 22:54:00,53.0,49.0,-100.00,ENE,60,1.0,2.0,85,0.00,,,-99.99,,2013-10-11 03:54:00,
2013-10-10 23:04:00,53.0,49.0,-100.00,ENE,60,1.0,2.0,85,0.00,,,-99.99,,2013-10-11 04:04:00,
2013-10-10 23:13:00,53.0,49.0,-100.00,ENE,60,1.0,2.0,85,0.00,,,-99.99,,2013-10-11 04:13:00,
2013-10-10 23:53:00,51.0,48.0,-100.00,East,90,0.0,1.0,90,0.00,,,-99.99,,2013-10-11 04:53:00,